Location: Unspecified
(26.1220°N, 0.0000°E)
Time: 13:04:14
(UTC+00:00)

Tiangong 2 - Visible Passes

Search period start: 19 May 2019 00:00
Search period end: 29 May 2019 00:00
Orbit: 378 x 387 km, 42.8° (Epoch: 19 May)

Date Brightness Start Highest point End Pass type
(mag) Time Alt. Az. Time Alt. Az. Time Alt. Az.
19 May 1.7 03:52:16 38° S 03:52:16 38° S 03:54:41 10° SSE visible
19 May 3.6 20:18:34 10° W 20:21:05 22° NNW 20:23:35 10° NNE visible
20 May 2.3 19:17:59 10° WSW 19:20:59 44° NW 19:23:59 10° NE visible
21 May 4.2 19:56:21 10° NW 19:57:55 13° NNW 19:59:29 10° N visible
